Overview Statistics Trail Chart Weather Telemetry Raw packets
 

This is the latest recevied weather packets stored in our database for station/object WA6OOO. If no packets are shown the sender has not sent any weather packets the latest 10 day(s).

<< 106 107 108 109 110 111 112 >>
Time Temp. Humidity Pressure Rain* Wind** Luminosity Snow
1787870004 28.89° C 64% 1014.2 hPa 0 mm - 299 W/m² -
1787869702 28.89° C 65% 1014.3 hPa 0 mm - 301 W/m² -
1787869402 28.89° C 65% 1014.3 hPa 0 mm - 301 W/m² -
1787869097 28.89° C 65% 1014.6 hPa 0 mm - 323 W/m² -
1787868795 27.78° C 67% 1014.7 hPa 0 mm - 362 W/m² -
1787868494 27.78° C 67% 1014.8 hPa 0 mm - 324 W/m² -
1787868194 27.78° C 67% 1014.9 hPa 0 mm - 230 W/m² -
1787867889 27.78° C 68% 1014.8 hPa 0 mm - 208 W/m² -
1787867585 27.78° C 67% 1014.9 hPa 0 mm - 222 W/m² -
1787867284 27.22° C 69% 1014.9 hPa 0 mm - 227 W/m² -
1787866981 27.78° C 68% 1015.1 hPa 0 mm - 215 W/m² -
1787866675 27.22° C 69% 1015.4 hPa 0 mm - 263 W/m² -
1787866374 27.22° C 69% 1015.4 hPa 0 mm - 305 W/m² -
1787866068 27.22° C 69% 1015.7 hPa 0 mm - 263 W/m² -
1787865763 27.22° C 68% 1015.5 hPa 0 mm - 247 W/m² -
1787865459 28.33° C 65% 1015.8 hPa 0 mm - 226 W/m² -
1787865153 28.89° C 59% 1015.9 hPa 0 mm - 223 W/m² -
1787864850 30° C 55% 1015.7 hPa 0 mm - 284 W/m² -
1787864545 31.11° C 52% 1015.9 hPa 0 mm - 414 W/m² -
1787864245 31.67° C 53% 1015.8 hPa 0 mm - 331 W/m² -
1787863939 31.67° C 53% 1015.9 hPa 0 mm - 331 W/m² -
1787863638 31.67° C 53% 1016 hPa 0 mm - 331 W/m² -
1787863337 31.67° C 53% 1015.8 hPa 0 mm - 331 W/m² -
1787863033 31.67° C 53% 1015.9 hPa 0 mm - 331 W/m² -
1787862728 31.67° C 53% 1016 hPa 0 mm - 331 W/m² -

* Rain latest hour (hover to see other rain measurements)
** Current wind speed in m/s (hover to see current wind gust speed)